�������l�o���
Date,Time,MP-1(��Sv/h),MP-2(��Sv/h),MP-3(��Sv/h),MP-4(��Sv/h),MP-5(��Sv/h),MP-6(��Sv/h),MP-7(��Sv/h),MP-8(��Sv/h),����,����(m/s),���J
2022/08/11,00:00,0.597,0.843,0.535,1.003,0.730,0.342,0.591,0.557,��,6.0,��
2022/08/11,00:10,0.597,0.843,0.533,1.004,0.730,0.343,0.591,0.555,��,6.4,��
2022/08/11,00:20,0.597,0.843,0.533,1.005,0.729,0.342,0.591,0.557,��,5.9,�L
2022/08/11,00:30,0.596,0.844,0.533,1.006,0.731,0.342,0.592,0.556,��,6.2,��
2022/08/11,00:40,0.598,0.844,0.533,1.006,0.731,0.343,0.591,0.555,��,6.0,��
2022/08/11,00:50,0.597,0.843,0.533,1.005,0.729,0.342,0.589,0.557,��,6.2,��
2022/08/11,01:00,0.596,0.844,0.533,1.005,0.731,0.343,0.589,0.555,��,7.3,��
2022/08/11,01:10,0.597,0.842,0.534,1.007,0.729,0.343,0.589,0.555,��,6.5,��
2022/08/11,01:20,0.594,0.844,0.535,1.003,0.729,0.341,0.590,0.556,��,5.4,��
2022/08/11,01:30,0.595,0.844,0.533,1.007,0.729,0.342,0.589,0.556,��,4.2,��
2022/08/11,01:40,0.595,0.845,0.534,1.006,0.729,0.342,0.588,0.555,��,3.9,��
2022/08/11,01:50,0.596,0.843,0.533,1.006,0.730,0.343,0.590,0.555,��,4.6,��
2022/08/11,02:00,0.597,0.842,0.534,1.006,0.730,0.342,0.590,0.556,��,5.8,��
2022/08/11,02:10,0.595,0.845,0.532,1.007,0.728,0.343,0.590,0.556,��,6.2,��
2022/08/11,02:20,0.596,0.845,0.534,1.008,0.730,0.342,0.590,0.556,��,6.1,��
2022/08/11,02:30,0.594,0.844,0.532,1.009,0.731,0.341,0.589,0.555,��,4.2,��
2022/08/11,02:40,0.595,0.843,0.532,1.006,0.729,0.339,0.590,0.556,��,5.7,��
2022/08/11,02:50,0.595,0.845,0.532,1.006,0.729,0.340,0.590,0.556,��,6.2,��
2022/08/11,03:00,0.594,0.844,0.533,1.007,0.728,0.342,0.588,0.554,��,5.7,��
2022/08/11,03:10,0.596,0.845,0.534,1.006,0.729,0.340,0.590,0.557,��,5.1,��
2022/08/11,03:20,0.595,0.843,0.532,1.006,0.729,0.340,0.590,0.555,��,3.1,��
2022/08/11,03:30,0.595,0.844,0.533,1.006,0.729,0.341,0.590,0.554,��,3.9,��
2022/08/11,03:40,0.594,0.842,0.533,1.007,0.729,0.340,0.589,0.556,��,5.1,��
2022/08/11,03:50,0.596,0.844,0.534,1.002,0.728,0.341,0.590,0.556,��,5.4,��
2022/08/11,04:00,0.595,0.842,0.533,1.004,0.729,0.341,0.590,0.556,��,4.9,��
2022/08/11,04:10,0.595,0.843,0.534,1.006,0.730,0.341,0.590,0.555,��,4.2,��
2022/08/11,04:20,0.596,0.841,0.534,1.005,0.728,0.340,0.589,0.556,��,3.6,��
2022/08/11,04:30,0.594,0.845,0.533,1.005,0.728,0.341,0.590,0.556,��쐼,3.2,��
2022/08/11,04:40,0.598,0.844,0.534,1.008,0.729,0.341,0.590,0.555,��,2.9,��
2022/08/11,04:50,0.595,0.842,0.533,1.004,0.730,0.341,0.589,0.554,��,4.6,��
2022/08/11,05:00,0.596,0.840,0.532,1.006,0.729,0.342,0.589,0.556,��,5.5,��
2022/08/11,05:10,0.598,0.841,0.534,1.009,0.730,0.341,0.588,0.555,��,4.7,��
2022/08/11,05:20,0.594,0.843,0.533,1.007,0.731,0.341,0.590,0.555,��,4.6,��
2022/08/11,05:30,0.596,0.844,0.533,1.005,0.729,0.339,0.589,0.556,��,4.9,��
2022/08/11,05:40,0.594,0.844,0.533,1.007,0.730,0.341,0.588,0.555,��,5.2,��
2022/08/11,05:50,0.596,0.845,0.534,1.005,0.730,0.340,0.589,0.555,��,5.2,��
2022/08/11,06:00,0.595,0.842,0.532,1.004,0.729,0.341,0.588,0.556,��,5.2,��
2022/08/11,06:10,0.595,0.844,0.534,1.006,0.729,0.340,0.589,0.554,��,4.8,��
2022/08/11,06:20,0.594,0.845,0.532,1.004,0.728,0.340,0.589,0.556,��,4.4,��
2022/08/11,06:30,0.596,0.844,0.534,1.004,0.729,0.341,0.590,0.556,��,4.8,��
2022/08/11,06:40,0.595,0.843,0.532,1.004,0.727,0.341,0.589,0.555,��,4.6,��
2022/08/11,06:50,0.595,0.844,0.533,1.007,0.728,0.340,0.590,0.555,��,5.3,��
2022/08/11,07:00,0.596,0.842,0.536,1.005,0.730,0.341,0.589,0.557,��,6.2,��
2022/08/11,07:10,0.597,0.843,0.534,1.005,0.729,0.340,0.588,0.556,��,6.0,��
2022/08/11,07:20,0.597,0.843,0.534,1.007,0.729,0.342,0.591,0.556,��,6.2,��
2022/08/11,07:30,0.595,0.843,0.534,1.007,0.729,0.341,0.589,0.556,��,6.4,��
2022/08/11,07:40,0.594,0.843,0.532,1.006,0.729,0.340,0.590,0.556,��,5.9,��
2022/08/11,07:50,0.594,0.845,0.532,1.005,0.729,0.342,0.590,0.555,��,6.7,��
2022/08/11,08:00,0.596,0.845,0.531,1.006,0.730,0.342,0.589,0.557,��,7.6,��
2022/08/11,08:10,0.594,0.843,0.533,1.008,0.729,0.340,0.590,0.556,��,7.1,��
2022/08/11,08:20,0.597,0.845,0.533,1.006,0.730,0.341,0.589,0.555,��,6.6,��
2022/08/11,08:30,0.594,0.845,0.533,1.008,0.728,0.341,0.589,0.555,��,6.2,��
2022/08/11,08:40,0.596,0.843,0.534,1.006,0.730,0.341,0.588,0.555,��쓌,5.4,��
2022/08/11,08:50,0.594,0.844,0.533,1.004,0.729,0.341,0.589,0.553,��,5.0,��
2022/08/11,09:00,0.595,0.846,0.532,1.007,0.730,0.342,0.589,0.554,��쐼,4.3,��
2022/08/11,09:10,0.595,0.845,0.531,1.008,0.731,0.341,0.591,0.554,��쐼,2.5,��
2022/08/11,09:20,0.597,0.844,0.533,1.005,0.731,0.341,0.590,0.554,��,3.2,��
2022/08/11,09:30,0.596,0.842,0.532,1.005,0.730,0.342,0.591,0.555,��,3.5,��
2022/08/11,09:40,0.597,0.844,0.531,1.006,0.731,0.342,0.591,0.556,��,3.3,��
2022/08/11,09:50,0.595,0.843,0.533,1.006,0.731,0.342,0.590,0.556,��,5.6,��
2022/08/11,10:00,0.596,0.844,0.532,1.005,0.732,0.341,0.591,0.554,��,5.8,��
2022/08/11,10:10,0.597,0.845,0.532,1.006,0.733,0.340,0.590,0.556,��쓌,5.5,��
2022/08/11,10:20,0.596,0.846,0.532,1.007,0.734,0.340,0.590,0.556,��쓌,6.1,��
2022/08/11,10:30,0.596,0.847,0.532,1.009,0.732,0.343,0.589,0.556,��쓌,6.4,��
2022/08/11,10:40,0.599,0.844,0.534,1.009,0.734,0.342,0.590,0.556,��쓌,9.0,��
2022/08/11,10:50,0.598,0.847,0.535,1.008,0.732,0.341,0.590,0.556,��,8.8,��
2022/08/11,11:00,0.597,0.848,0.535,1.009,0.732,0.342,0.590,0.556,��,10.7,��
2022/08/11,11:10,0.601,0.847,0.533,1.009,0.735,0.341,0.591,0.556,��쓌,10.6,��
2022/08/11,11:20,0.598,0.848,0.535,1.007,0.735,0.341,0.591,0.556,��,10.8,��
2022/08/11,11:30,0.600,0.847,0.536,1.006,0.736,0.340,0.592,0.556,��,9.3,��
2022/08/11,11:40,0.600,0.849,0.534,1.007,0.734,0.343,0.591,0.558,��쓌,12.5,��
2022/08/11,11:50,0.600,0.847,0.534,1.007,0.734,0.341,0.590,0.556,��,12.0,��
2022/08/11,12:00,0.599,0.850,0.534,1.007,0.734,0.341,0.590,0.556,��,10.8,��
2022/08/11,12:10,0.599,0.848,0.535,1.006,0.735,0.342,0.591,0.555,��,11.8,��
2022/08/11,12:20,0.599,0.846,0.534,1.008,0.734,0.342,0.591,0.556,��,11.3,��
2022/08/11,12:30,0.600,0.846,0.533,1.009,0.735,0.342,0.591,0.558,��,11.3,��
2022/08/11,12:40,0.600,0.848,0.535,1.009,0.735,0.342,0.593,0.557,��,8.5,��
2022/08/11,12:50,0.599,0.849,0.535,1.007,0.736,0.342,0.593,0.556,��,8.0,��
2022/08/11,13:00,0.599,0.847,0.535,1.008,0.736,0.342,0.592,0.556,��,10.0,��
2022/08/11,13:10,0.601,0.850,0.535,1.011,0.736,0.341,0.591,0.557,��,10.5,��
2022/08/11,13:20,0.601,0.850,0.538,1.012,0.735,0.341,0.590,0.556,��,11.3,��
2022/08/11,13:30,0.601,0.853,0.535,1.013,0.736,0.342,0.593,0.557,��,12.0,��
2022/08/11,13:40,0.602,0.850,0.535,1.014,0.737,0.342,0.590,0.557,��쓌,12.5,��
2022/08/11,13:50,0.600,0.849,0.537,1.014,0.735,0.342,0.592,0.558,��쓌,12.2,��
2022/08/11,14:00,0.599,0.850,0.536,1.013,0.736,0.342,0.594,0.557,��쓌,13.6,��
2022/08/11,14:10,0.599,0.850,0.536,1.011,0.738,0.343,0.592,0.557,��,11.7,��
2022/08/11,14:20,0.602,0.852,0.536,1.009,0.737,0.343,0.593,0.559,��,9.6,��
2022/08/11,14:30,0.602,0.851,0.536,1.011,0.738,0.343,0.593,0.557,��,10.7,��
2022/08/11,14:40,0.600,0.852,0.537,1.013,0.739,0.343,0.595,0.557,��,8.7,��
2022/08/11,14:50,0.601,0.853,0.537,1.012,0.740,0.344,0.595,0.559,��쓌,9.4,��
2022/08/11,15:00,0.600,0.854,0.538,1.013,0.740,0.343,0.594,0.558,��,9.3,��
2022/08/11,15:10,0.601,0.852,0.537,1.013,0.741,0.344,0.594,0.560,��,8.3,��
2022/08/11,15:20,0.602,0.853,0.537,1.011,0.741,0.344,0.595,0.557,��,9.2,��
2022/08/11,15:30,0.602,0.855,0.538,1.013,0.739,0.343,0.595,0.557,��,10.2,��
2022/08/11,15:40,0.599,0.854,0.539,1.013,0.740,0.345,0.595,0.557,��,9.7,��
2022/08/11,15:50,0.603,0.854,0.539,1.015,0.741,0.344,0.594,0.559,��,10.5,��
2022/08/11,16:00,0.602,0.856,0.540,1.015,0.741,0.343,0.593,0.557,��,10.4,��
2022/08/11,16:10,0.601,0.852,0.539,1.016,0.741,0.344,0.593,0.556,��,8.8,��
2022/08/11,16:20,0.602,0.852,0.539,1.017,0.738,0.343,0.593,0.557,��,9.0,��
2022/08/11,16:30,0.602,0.856,0.538,1.016,0.740,0.342,0.592,0.556,��,9.1,��
2022/08/11,16:40,0.603,0.853,0.539,1.017,0.741,0.343,0.592,0.559,��,8.3,��
2022/08/11,16:50,0.602,0.854,0.538,1.018,0.740,0.343,0.593,0.558,��,7.9,��
2022/08/11,17:00,0.601,0.854,0.538,1.018,0.740,0.342,0.593,0.558,��,8.8,��
2022/08/11,17:10,0.600,0.854,0.537,1.018,0.741,0.344,0.593,0.558,��,8.5,��
2022/08/11,17:20,0.601,0.854,0.539,1.017,0.739,0.343,0.593,0.558,��,8.7,��
2022/08/11,17:30,0.602,0.853,0.538,1.015,0.740,0.343,0.593,0.557,��,8.2,��
2022/08/11,17:40,0.602,0.853,0.538,1.015,0.739,0.343,0.594,0.558,��,7.0,��
2022/08/11,17:50,0.603,0.854,0.536,1.017,0.740,0.343,0.593,0.556,��,8.4,��
2022/08/11,18:00,0.601,0.853,0.536,1.016,0.741,0.343,0.592,0.557,��,10.2,��
2022/08/11,18:10,0.603,0.854,0.538,1.016,0.741,0.343,0.593,0.557,��,10.0,��
2022/08/11,18:20,0.602,0.851,0.537,1.017,0.740,0.344,0.591,0.557,��,9.8,��
2022/08/11,18:30,0.602,0.853,0.535,1.017,0.739,0.343,0.592,0.556,��,8.1,��
2022/08/11,18:40,0.600,0.853,0.538,1.016,0.739,0.341,0.593,0.557,��,7.8,��
2022/08/11,18:50,0.602,0.851,0.539,1.014,0.740,0.342,0.592,0.557,��,7.2,��
2022/08/11,19:00,0.600,0.853,0.538,1.016,0.739,0.341,0.590,0.557,��,6.9,��
2022/08/11,19:10,0.601,0.851,0.538,1.016,0.740,0.343,0.592,0.558,��,6.5,��
2022/08/11,19:20,0.601,0.850,0.537,1.015,0.739,0.343,0.590,0.558,��,6.7,��
2022/08/11,19:30,0.600,0.854,0.537,1.014,0.740,0.343,0.591,0.556,��,7.0,��
2022/08/11,19:40,0.602,0.854,0.538,1.014,0.740,0.344,0.592,0.557,��,7.3,��
2022/08/11,19:50,0.604,0.855,0.538,1.017,0.739,0.343,0.594,0.556,��,7.5,��
2022/08/11,20:00,0.603,0.854,0.537,1.016,0.740,0.342,0.592,0.556,��,7.1,��
2022/08/11,20:10,0.602,0.855,0.537,1.015,0.740,0.343,0.591,0.556,��,7.5,��
2022/08/11,20:20,0.602,0.852,0.538,1.015,0.742,0.343,0.593,0.559,��,7.5,��
2022/08/11,20:30,0.601,0.855,0.538,1.016,0.739,0.343,0.592,0.556,��,8.1,��
2022/08/11,20:40,0.602,0.855,0.537,1.016,0.739,0.343,0.592,0.557,��,8.4,��
2022/08/11,20:50,0.602,0.853,0.539,1.017,0.740,0.343,0.593,0.556,��,8.8,��
2022/08/11,21:00,0.602,0.855,0.538,1.013,0.738,0.345,0.592,0.558,��,9.4,��
2022/08/11,21:10,0.602,0.855,0.539,1.016,0.741,0.343,0.594,0.556,��,9.3,��
2022/08/11,21:20,0.602,0.853,0.539,1.019,0.742,0.344,0.591,0.558,��,9.6,��
2022/08/11,21:30,0.603,0.854,0.539,1.015,0.740,0.342,0.592,0.558,��,10.0,��
2022/08/11,21:40,0.600,0.852,0.538,1.017,0.740,0.345,0.592,0.558,��,9.0,��
2022/08/11,21:50,0.601,0.854,0.538,1.018,0.740,0.344,0.591,0.556,��,8.9,��
2022/08/11,22:00,0.601,0.854,0.537,1.015,0.741,0.344,0.592,0.557,��,8.2,��
2022/08/11,22:10,0.601,0.856,0.539,1.017,0.740,0.343,0.592,0.557,��,8.9,��
2022/08/11,22:20,0.602,0.853,0.537,1.019,0.741,0.345,0.593,0.557,��,8.4,��
2022/08/11,22:30,0.601,0.855,0.538,1.015,0.742,0.343,0.592,0.559,��,8.7,��
2022/08/11,22:40,0.602,0.857,0.538,1.017,0.741,0.343,0.591,0.559,��,8.9,��
2022/08/11,22:50,0.601,0.853,0.539,1.016,0.742,0.345,0.593,0.557,��,7.0,��
2022/08/11,23:00,0.600,0.855,0.537,1.017,0.742,0.344,0.593,0.559,��,6.1,��
2022/08/11,23:10,0.601,0.854,0.539,1.018,0.741,0.344,0.593,0.559,��,6.0,��
2022/08/11,23:20,0.601,0.853,0.537,1.018,0.740,0.343,0.594,0.559,��,6.7,��
2022/08/11,23:30,0.601,0.854,0.538,1.019,0.739,0.343,0.593,0.559,��,7.7,��
2022/08/11,23:40,0.601,0.854,0.540,1.018,0.741,0.344,0.594,0.558,��,7.8,��
2022/08/11,23:50,0.599,0.855,0.538,1.017,0.740,0.345,0.595,0.558,��,9.2,��
